GW4137 Weather Reports


Display with metric or nautical units.
time (UTC)temp
F
wind
direction
speed
MPH
gust
MPH
rain 1hr
in
rain 24hr
in
rain mn
in
humidity
%
barometer
mb
20260503203100 71 306 12.0 19.0 0.00 0.00 0.00 19 1009.9
20260503201558 71 322 13.0 19.0 0.00 0.00 0.00 20 1010.1
20260503200059 70 312 7.0 21.0 0.00 0.00 0.00 21 1010.3
20260503194559 71 352 12.0 26.0 0.00 0.00 0.00 21 1010.5
20260503193111 70 323 11.0 25.0 0.00 0.00 0.00 20 1010.7
20260503191553 70 338 11.0 18.0 0.00 0.00 0.00 20 1010.8
20260503190105 70 277 11.0 18.0 0.00 0.00 0.00 21 1010.9
20260503184548 70 277 11.0 19.0 0.00 0.00 0.00 20 1011.1
20260503183059 69 335 8.0 17.0 0.00 0.00 0.00 21 1011.2
20260503181553 70 273 11.0 17.0 0.00 0.00 0.00 20 1011.5
20260503180057 69 292 10.0 19.0 0.00 0.00 0.00 21 1011.6
20260503174551 68 257 3.0 17.0 0.00 0.00 0.00 24 1011.8
20260503173111 68 311 8.0 22.0 0.00 0.00 0.00 26 1012.0
20260503171553 67 289 7.0 12.0 0.00 0.00 0.00 27 1012.1
20260503150111 53 291 11.0 14.0 0.00 0.00 0.00 66 1012.9
20260503140119 48 290 5.0 9.0 0.00 0.00 0.00 78 1013.3
20260503110117 41 0 0.0 0.0 0.00 0.00 0.00 84 1013.7
20260503100105 40 0 0.0 0.0 0.00 0.00 0.00 85 1014.2
20260503081620 44 0 0.0 2.0 0.00 0.00 0.00 80 1014.9
20260503080103 44 0 0.0 2.0 0.00 0.00 0.00 80 1014.8
20260503071607 42 0 1.0 5.0 0.00 0.00 0.00 83 1014.9
20260503070104 42 0 0.0 0.0 0.00 0.00 0.00 82 1014.9
20260503060106 45 208 0.0 2.0 0.00 0.00 0.00 78 1014.9
20260503054557 46 0 0.0 2.0 0.00 0.00 0.00 75 1014.9
20260503053056 46 208 1.0 3.0 0.00 0.00 0.00 77 1015.2
20260503051600 47 208 1.0 4.0 0.00 0.00 0.00 72 1015.2
20260503050055 49 208 1.0 4.0 0.00 0.00 0.00 73 1015.3
20260503044556 49 0 0.0 2.0 0.00 0.00 0.00 73 1015.3
20260503043054 51 0 0.0 2.0 0.00 0.00 0.00 71 1015.5
20260503041555 52 0 0.0 0.0 0.00 0.00 0.00 69 1015.5
20260503040056 52 0 0.0 7.0 0.00 0.00 0.00 69 1015.7
20260503034556 52 208 7.0 14.0 0.00 0.00 0.00 71 1015.9
20260503033106 56 281 10.0 28.0 0.00 0.00 0.00 60 1016.3
20260503031557 58 343 0.0 6.0 0.00 0.00 0.00 43 1015.8
20260503030049 57 0 0.0 0.0 0.00 0.00 0.00 40 1015.1
20260503024557 59 0 0.0 0.0 0.00 0.00 0.00 40 1015.1
20260503023050 60 0 0.0 0.0 0.00 0.00 0.00 39 1015.0
20260503021559 62 0 0.0 1.0 0.00 0.00 0.00 36 1014.8
20260503020056 63 0 0.0 0.0 0.00 0.00 0.00 35 1014.9
20260503014620 64 0 0.0 4.0 0.00 0.00 0.00 34 1014.8
20260503013051 66 0 0.0 1.0 0.00 0.00 0.00 32 1014.8
20260503011601 67 0 0.0 0.0 0.00 0.00 0.00 33 1014.7
20260503010055 66 0 0.0 6.0 0.00 0.00 0.00 32 1015.0
20260503004611 67 324 0.0 6.0 0.00 0.00 0.00 33 1015.2
20260503003049 65 0 1.0 4.0 0.00 0.00 0.00 35 1015.2
20260503001556 65 335 3.0 8.0 0.00 0.00 0.00 34 1015.5
20260503000114 64 0 0.0 9.0 0.00 0.00 0.00 34 1015.7
20260502234556 65 79 2.0 7.0 0.00 0.00 0.00 34 1015.7
20260502233053 64 0 1.0 10.0 0.00 0.00 0.00 35 1015.8
20260502231558 66 17 4.0 10.0 0.00 0.00 0.00 34 1016.0
20260502230055 66 350 1.0 5.0 0.00 0.00 0.00 34 1016.2
20260502224604 67 59 4.0 9.0 0.00 0.00 0.00 33 1016.3
20260502223055 66 221 4.0 9.0 0.00 0.00 0.00 34 1016.6
20260502221554 66 286 0.0 2.0 0.00 0.00 0.00 35 1016.7
20260502220052 65 0 1.0 8.0 0.00 0.00 0.00 37 1016.9
20260502214554 64 5 2.0 5.0 0.00 0.00 0.00 38 1017.2
20260502213105 64 360 0.0 5.0 0.00 0.00 0.00 38 1017.5
20260502211632 63 0 0.0 8.0 0.00 0.00 0.00 39 1017.7
20260502210100 63 21 3.0 8.0 0.00 0.00 0.00 39 1017.8